Regional Weather Roundup
Issued by NWS New Orleans/Baton Rouge, LA

Home | Current Version | Previous Version | Text Only | Print | Product List | Glossary On
Versions: 1 2 3 4 5 6 7 8 9 10 11 12 13 14 15 16 17 18 19 20 21 22 23 24 25 26 27 28 29 30 31 32 33 34 35 36 37 38 39 40 41 42 43 44 45 46 47 48 49 50
000
ASUS44 KLIX 301212
RWRLIX
NEW ORLEANS REGIONAL WEATHER ROUNDUP
NATIONAL WEATHER SERVICE NEW ORLEANS LA
700 AM CDT THU JUL 30 2015

NOTE: "FAIR" INDICATES FEW OR NO CLOUDS BELOW 12,000 FEET WITH NO
      SIGNIFICANT WEATHER AND/OR OBSTRUCTIONS TO VISIBILITY.
      SKY/WX - SKY CONDITION AND SIGNIFICANT WEATHER.
      TMP - AIR TEMPERATURE.     DP    - DEWPOINT TEMPERATURE.
      RH  - RELATIVE HUMIDITY.   PRES  - PRESSURE.
      HI  - HEAT INDEX.          WCI   - WIND CHILL INDEX.

*  THESE STATIONS ARE NOT NWS OR FAA STATIONS AND ARE NOT UNDER
   NWS QUALITY CONTROL.

LAZ038-040-048-061>063-065>067-069-301300-
SOUTHEAST LOUISIANA

CITY           SKY/WX    TMP DP  RH WIND       PRES   REMARKS
N.O. AUDUBON   NOT AVBL
N.O. INTL ARPT MOCLDY    81  76  84 NW3       30.00R
6HR MIN TEMP:  78; 6HR MAX TEMP:  81;

N.O. LAKEFRONT PTCLDY    82  76  81 NW10      30.00R
6HR MIN TEMP:  80; 6HR MAX TEMP:  83;

N.O. DOWNTOWN*   N/A     81  75  83 N6        30.01R
6HR MIN TEMP:  79; 6HR MAX TEMP:  81;

RESERVE*         N/A     77  75  93 CALM      30.01R
6HR MIN TEMP:  77; 6HR MAX TEMP:  79;

SLIDELL        MOCLDY    76  76 100 CALM      30.00R
6HR MIN TEMP:  75; 6HR MAX TEMP:  76;

BATON ROUGE    CLEAR     78  75  90 CALM      30.01R
6HR MIN TEMP:  77; 6HR MAX TEMP:  79;

BOOTHVILLE     MOCLDY    83  78  85 NW6       30.00R
6HR MIN TEMP:  81; 6HR MAX TEMP:  84;

BELLE CHASSE   MOCLDY    76  75  97 CALM      30.00R FOG
6HR MIN TEMP:  76; 6HR MAX TEMP:  77;

BOGALUSA*        N/A     77  73  87 CALM      30.02R
6HR MIN TEMP:  75; 6HR MAX TEMP:  77; 6HR PCP:  0.01;

GALLIANO*      NOT AVBL
NEW ROADS*       N/A    N/A N/A N/A CALM      30.02R
GONZALES*        N/A     76  76 100 CALM      30.00R FOG
6HR MIN TEMP:  76; 6HR MAX TEMP:  79;

HAMMOND*       PTCLDY    75  73  94 CALM      30.02R
HOUMA*         PTCLDY    79  75  89 N3        30.01R
PORT FOURCHON* SUNNY     82  73  74 N6        30.01R

$$

MSZ070-080>082-301300-
SOUTHERN MISSISSIPPI

CITY           SKY/WX    TMP DP  RH WIND       PRES   REMARKS
MCCOMB         PTCLDY    76  75  97 NW3       30.02R
6HR MIN TEMP:  75; 6HR MAX TEMP:  77;

GULFPORT       CLOUDY    77  74  90 NW5       29.98R
6HR MIN TEMP:  76; 6HR MAX TEMP:  77;

BILOXI         MOCLDY    78  75  91 N6        29.98R
6HR MIN TEMP:  76; 6HR MAX TEMP:  78;

PASCAGOULA     PTCLDY    77  75  93 NW3       29.98R
6HR MIN TEMP:  76; 6HR MAX TEMP:  77;

STENNIS ARPT*  PTCLDY    73  70  88 CALM      30.00

$$

COASTAL OBSERVATIONS
LAKE AND NEARSHORE STATIONS

STATION/POSITION TIME  TEMP    WIND        PRES    WAVE
                       AIR SEA DIR/SP/G            HT/PER
                 (UTC) (F)     (DEG/KT/KT) (MB)    (FT/S)
PASCAGOULA       1100   79                   N/A
WAVELAND YACHT   1100   77                   N/A
GRAND ISLE       1100   82                   N/A
SHELL BEACH      1100   82                   N/A

OFFSHORE STATIONS

STATION/POSITION TIME  TEMP    WIND        PRES    WAVE
                       AIR SEA DIR/SP/G            HT/PER
                 (UTC) (F)     (DEG/KT/KT) (MB)    (FT/S)
64 S DAUPHIN ISL 1150   81 87  180/ 17/ 21 1015.1    2/ 4

$$




USA.gov is the U.S. government's official web portal to all federal, state and local government web resources and services.